Weather in Novy

Russia / Udmurt Republic     56°48′42″N   54°02′13″E
temp.,
°C
wind,
m/s
gust,
m/s
humid.,
%
clouds,
%
prec.,
mm/h
press.,
hPa
HPBL,
m
7 march, sun
sun701:00−16wsw129793 0.1 101139
04:00−16sw129792 0.2 101120
07:00−16sw129793 0.1 101024
10:00−13wsw139087 0.2 1010297
13:00−10w2381100 0.0 1009733
16:00−10sw2485100 0.1 1008613
19:00−13s379695 0.1 1008162
22:00−16s259885 0.1 1007107
8 march, mon
mon801:00−13sse41095100 0.1 1004290
04:00−12sse51094100 0.3 1002419
07:00−10sse51193100 1.0 998693
10:00−8sse51190100 1.6 996713
13:00−3s61193100 1.1 994920
16:00−3sw81473100 1.4 9941475
19:00−7sw6148631 0.0 997729
22:00−10sw4119050 0.0 999397
9 march, tue
tue901:00−13ssw359581 0.0 999116
04:00−14wsw229666 0.0 100140
07:00−15w2598100 0.1 1003107
10:00−11wnw249190 0.1 1007311
13:00−8w348584 0.0 1009676
16:00−7wsw248692 0.1 1010691
19:00−11wsw1195100 0.1 101021
22:00−13n1197100 0.3 101123
10 march, wed
wed1001:00−14nne229899 0.1 101029
04:00−15nne4895100 0.1 1010332
07:00−19nne51094100 0.1 1010404
10:00−21n51091100 0.1 1010370
13:00−19n61184100 0.0 1011491
16:00−17n51178100 0.0 1012690
19:00−18n41183100 0.0 1014738
22:00−21n4128899 0.0 1015605
11 march, thu
thu1101:00−23nnw31193100 0.0 1016353
04:00−26nw259699 0.0 1017121
07:00−27wnw239768 0.0 101842
10:00−21wnw259365 0.0 1019260
13:00−16w3591100 0.1 1019407
16:00−13wnw3690100 0.2 1019554
19:00−13wsw3795100 0.1 1020264
22:00−12w3995100 0.2 1021272